Shungnak AP, Shungnak, AK, AK

1:55 AM AKST on December 09, 2019 (GMT -0900)
Shungnak AP, Shungnak, AK

Weather History for PAGH - October, 2019

Change the Weather History Date:

Friday, October 25, 2019

  Actual Average (PAFM) Record (PAFM)
Temperature  
Mean Temperature 12 °F -  
Max Temperature 21 °F 18 °F 39 °F (2002)
Min Temperature 5 °F 10 °F -23 °F (1983)
Degree Days  
Heating Degree Days 53    
Moisture  
Dew Point 9 °F    
Average Humidity 87    
Maximum Humidity 92    
Minimum Humidity 77    
Precipitation  
Precipitation 0.00 in - - ()
Sea Level Pressure  
Sea Level Pressure 30.17 in    
Wind  
Wind Speed 2 mph (ESE)    
Max Wind Speed 14 mph    
Max Gust Speed -    
Visibility 7 miles    
Events Fog , Snow    
Averages and records for this station are not official NWS values.
T = Trace of Precipitation, MM = Missing Value Source: NWS Daily Summary

Daily Weather History Graph

Daily Weather History Graph

Search for Another Location

Airport or City:

Astronomy

Oct. 25, 2019 Rise Set
Actual Time 10:04 AM AKDT 6:19 PM AKDT
Civil Twilight 9:06 AM AKDT 7:17 PM AKDT
Nautical Twilight 8:04 AM AKDT 8:19 PM AKDT
Astronomical Twilight 7:02 AM AKDT 9:20 PM AKDT
Moon 5:06 AM AKDT (10/25) 7:01 PM AKDT (10/25)
Length of Visible Light 10h 10m
Length of Day
8h 15m
Waning Crescent, 8% of the Moon is Illuminated
Oct 25
Waning Crescent
Oct 27
New
Nov 4
First Quarter
Nov 12
Full
Nov 19
Last Quarter

Hourly Weather History & Observations

Time (AKDT) Temp. Windchill Dew Point Humidity Pressure Visibility Wind Dir Wind Speed Gust Speed Precip Events Conditions
12:56 AM 8.1 °F - 3.9 °F 83% 29.80 in 10.0 mi Calm Calm - N/A   Scattered Clouds
1:56 AM 10.9 °F - 5.0 °F 77% 29.83 in 10.0 mi Calm Calm - N/A   Clear
2:56 AM 8.1 °F - 5.0 °F 87% 29.86 in 10.0 mi Calm Calm - N/A   Clear
3:56 AM 8.1 °F - 5.0 °F 87% 29.88 in 10.0 mi Calm Calm - N/A   Clear
4:56 AM 9.0 °F - 5.0 °F 84% 29.92 in 10.0 mi Calm Calm - N/A   Clear
5:56 AM 8.1 °F - 6.1 °F 92% 29.95 in 10.0 mi Calm Calm - N/A   Clear
6:56 AM 8.1 °F - 5.0 °F 87% 29.99 in 10.0 mi Calm Calm - N/A   Clear
7:20 AM 6.8 °F - 3.2 °F 85% 29.98 in 10.0 mi Calm Calm - N/A   Scattered Clouds
7:36 AM 6.8 °F - 3.2 °F 85% 29.99 in 10.0 mi Calm Calm - N/A   Mostly Cloudy
7:47 AM 6.8 °F - 3.2 °F 85% 29.99 in 10.0 mi Calm Calm - N/A   Scattered Clouds
7:56 AM 6.1 °F - 3.0 °F 87% 30.02 in 10.0 mi Calm Calm - N/A   Partly Cloudy
8:56 AM 7.0 °F 0.1 °F 5.0 °F 92% 30.07 in 10.0 mi West 3.5 mph - N/A   Clear
9:30 AM 6.8 °F -2.0 °F 5.0 °F 92% 30.06 in 10.0 mi WSW 4.6 mph - N/A   Partly Cloudy
9:56 AM 5.0 °F -2.1 °F 1.9 °F 87% 30.11 in 9.0 mi SW 3.5 mph - N/A   Mostly Cloudy
10:01 AM 6.8 °F -2.0 °F 5.0 °F 92% 30.08 in 1.5 mi SW 4.6 mph - N/A   Mostly Cloudy
10:05 AM 8.6 °F 0.1 °F 6.8 °F 92% 30.08 in 0.8 mi SW 4.6 mph - N/A   Mostly Cloudy
10:15 AM 8.6 °F 0.1 °F 6.8 °F 92% 30.09 in 0.5 mi WSW 4.6 mph - N/A Fog Light Freezing Fog
10:33 AM 8.6 °F 2.0 °F 6.8 °F 92% 30.10 in 1.0 mi WNW 3.5 mph - N/A   Overcast
10:40 AM 8.6 °F - 6.8 °F 92% 30.11 in 2.0 mi Calm Calm - N/A   Overcast
10:48 AM 8.6 °F - 5.0 °F 85% 30.12 in 7.0 mi Calm Calm - N/A   Overcast
10:53 AM 8.6 °F 2.0 °F 5.0 °F 85% 30.12 in 1.2 mi NW 3.5 mph - N/A   Overcast
10:56 AM 8.1 °F 1.4 °F 5.0 °F 87% 30.16 in 0.5 mi West 3.5 mph - N/A Fog Light Freezing Fog
11:03 AM 8.6 °F 0.1 °F 6.8 °F 92% 30.14 in 0.2 mi West 4.6 mph - N/A Fog Light Freezing Fog
11:56 AM 10.0 °F 3.6 °F 8.1 °F 92% 30.20 in 0.2 mi NNE 3.5 mph - N/A Fog Light Freezing Fog
12:38 PM 10.4 °F 2.2 °F 8.6 °F 92% 30.20 in 0.8 mi NE 4.6 mph - 0.00 in   Overcast
12:47 PM 10.4 °F 4.0 °F 8.6 °F 92% 30.20 in 1.0 mi NE 3.5 mph - 0.00 in   Overcast
12:52 PM 10.4 °F 4.0 °F 8.6 °F 92% 30.21 in 1.2 mi ENE 3.5 mph - 0.00 in   Overcast
12:56 PM 12.0 °F - 9.0 °F 88% 30.24 in 2.5 mi Calm Calm - 0.00 in   Overcast
1:03 PM 12.2 °F - 10.4 °F 92% 30.22 in 5.0 mi Calm Calm - N/A   Mostly Cloudy
1:28 PM 15.8 °F - 12.2 °F 86% 30.24 in 9.0 mi Calm Calm - 0.00 in Snow Light Snow
1:56 PM 19.9 °F - 18.0 °F 92% 30.29 in 10.0 mi Calm Calm - 0.00 in   Clear
2:56 PM 19.9 °F 14.9 °F 16.0 °F 85% 30.32 in 9.0 mi ENE 3.5 mph - 0.00 in Snow Light Snow
3:56 PM 19.0 °F 12.3 °F 14.0 °F 81% 30.32 in 10.0 mi East 4.6 mph - 0.00 in   Clear
4:56 PM 19.0 °F - 15.1 °F 85% 30.35 in 10.0 mi North - - N/A   Clear
5:56 PM 16.0 °F 6.3 °F 12.9 °F 88% 30.37 in 10.0 mi ESE 6.9 mph - N/A   Clear
6:31 PM 15.8 °F 7.2 °F 12.2 °F 86% 30.35 in 10.0 mi East 5.8 mph - N/A   Mostly Cloudy
6:56 PM 16.0 °F 4.4 °F 12.9 °F 88% 30.39 in 10.0 mi ESE 9.2 mph - N/A   Overcast
7:56 PM 17.1 °F 5.0 °F 14.0 °F 88% 30.41 in 9.0 mi ESE 10.4 mph - 0.00 in Snow Light Snow
8:09 PM 17.6 °F 5.7 °F 12.2 °F 79% 30.38 in 9.0 mi ESE 10.4 mph - 0.00 in Snow Light Snow
8:56 PM 17.1 °F 5.8 °F 14.0 °F 88% 30.42 in 6.0 mi East 9.2 mph - 0.00 in Snow Light Snow
9:20 PM 17.6 °F 5.7 °F 14.0 °F 86% 30.40 in 6.0 mi ESE 10.4 mph - 0.00 in Snow Light Snow
9:52 PM 17.6 °F 5.0 °F 14.0 °F 86% 30.40 in 10.0 mi ESE 11.5 mph - 0.00 in   Overcast
9:56 PM 17.1 °F 4.3 °F 14.0 °F 88% 30.43 in 10.0 mi ESE 11.5 mph - 0.00 in   Overcast
10:56 PM 18.0 °F 4.2 °F 12.0 °F 78% 30.44 in 10.0 mi ESE 13.8 mph - N/A   Overcast
11:56 PM 17.1 °F 3.6 °F 10.9 °F 77% 30.44 in 10.0 mi ESE 12.7 mph - N/A   Clear